[[{"header":{"parameterUnit":"m.s-1","parameterCategory":2,"la1":30.2992,"la2":30.254,"lo1":-89.0895,"lo2":-89.0443,"dy":0.0025,"dx":0.0025,"nx":19,"ny":19,"refTime":"2026-05-04T21:00:00:Z","depth":"0","parameterNumber":2,"parameterNumberName":"U-component_of_CURRENTS"},"data":[0,0,0,-0.016,-0.016,-0.0147,-0.0147,-0.0145,-0.0145,0,0,0,0,0,0,0,0,0,0,0,-0.0161,-0.0161,-0.016,-0.016,-0.0147,-0.0147,-0.0145,-0.0145,0,0,0,0,0,0,0,0,0,0,0,-0.0161,-0.0161,-0.0161,-0.016,-0.0147,-0.0147,-0.0145,-0.015,0,0,0,0,0,0,0,0,0,0,-0.016,-0.0161,-0.0161,-0.0161,-0.016,-0.0147,-0.0147,-0.015,-0.015,-0.0155,0,-0.0153,0,-0.0152,-0.0145,-0.0145,0,0,0,-0.0157,-0.0161,-0.0159,-0.0161,-0.016,-0.0148,-0.0152,-0.015,-0.0149,-0.0155,-0.0153,-0.0152,-0.0152,-0.0145,-0.0145,-0.0148,-0.0148,0,0,-0.0157,-0.0158,-0.0159,-0.0158,-0.0156,-0.0153,-0.0152,-0.0149,-0.0148,-0.0152,-0.0152,-0.0152,-0.0145,-0.0145,-0.0148,-0.0148,0,0,0,-0.0161,-0.0159,-0.0156,-0.0159,-0.0157,-0.0152,-0.0151,-0.0148,-0.0148,-0.0152,-0.0152,-0.0145,-0.0145,-0.0148,-0.0148,-0.0014,0,0,0,-0.0162,-0.0162,-0.0157,-0.0157,-0.0157,-0.0151,-0.0151,-0.0148,-0.0148,-0.0152,-0.0145,-0.0145,-0.0148,-0.0148,-0.0018,0.015,0,0,0,-0.0162,-0.0162,-0.016,-0.0157,-0.0154,-0.0151,-0.015,-0.0147,-0.0147,-0.0145,-0.0145,-0.0148,-0.0148,-0.0021,0.014,0.0284,0,0,0,-0.0164,-0.017,-0.016,-0.017,-0.0154,-0.0156,-0.015,-0.0151,-0.0151,-0.0145,-0.0148,-0.0148,-0.0022,0.0134,0.0276,0.0229,0.0259,0,0,-0.0175,-0.0171,-0.0179,-0.0171,-0.0178,-0.0158,-0.0133,-0.0128,-0.0151,-0.0149,-0.0149,-0.0016,0.0139,0.0282,0.0231,0.0262,0,0,0,-0.0186,-0.0193,-0.0195,-0.0194,-0.0187,-0.0092,-0.0133,-0.0112,-0.0075,-0.015,-0.0053,0.0042,0.0128,0.0081,0.0104,0.0271,-0.0147,-0.0147,-0.0147,-0.0202,-0.0202,-0.0172,-0.0157,-0.0131,-0.0076,0.0019,0.0046,-0.0057,-0.002,0.0119,0.029,0.0232,0.0252,0.0422,0.0023,0.0023,0.0024,0.0024,-0.0177,-0.0104,-0.0089,-0.0042,0.0055,0.0108,0.0207,0.02,0.0337,0.02,0.0274,0.0184,0.0287,0.0458,0.0032,0.0031,0.003,0.0029,0.0028,-0.0129,-0.0059,-0.0041,0.0074,0.0219,0.0289,0.0454,0.0516,0.0542,0.0646,0.0576,0.0571,0.076,0.065,0.0652,0.0653,0.0654,0.0655,0.0656,0.0,0.0026,0.0087,0.0204,0.0277,0.0416,0.0611,0.071,0.0835,0.0806,0.0802,0.0836,0.0484,0.0503,0.0677,0.0673,0.067,0.0669,0.0667,0.0171,0.0151,0.02,0.0249,0.0361,0.0471,0.0618,0.0857,0.1004,0.1082,0.116,0.0868,0.0855,0.083,0.0855,0.1113,0.1113,0.1113,0.1113,0.03,0.029,0.0319,0.0325,0.0391,0.0489,0.0668,0.0902,0.1247,0.1412,0.1444,0.1264,0.1238,0.1239,0.1205,0.1233,0.1582,0.1583,0.1584,0.0454,0.0402,0.0434,0.0366,0.0404,0.0496,0.0685,0.0921,0.1412,0.1625,0.1713,0.1693,0.1441,0.1387,0.1375,0.1314,0.1352,0,0]},{"header":{"parameterUnit":"m.s-1","parameterCategory":2,"la1":30.2992,"la2":30.254,"lo1":-89.0895,"lo2":-89.0443,"dy":0.0025,"dx":0.0025,"nx":19,"ny":19,"refTime":"2026-05-04T21:00:00:Z","depth":"0","parameterNumber":3,"parameterNumberName":"V-component_of_CURRENTS"},"data":[0,0,0,-0.0185,-0.0185,-0.0183,-0.0183,-0.0141,-0.0141,0,0,0,0,0,0,0,0,0,0,0,-0.0184,-0.0184,-0.0185,-0.0185,-0.0183,-0.0183,-0.0141,-0.0141,0,0,0,0,0,0,0,0,0,0,0,-0.0184,-0.0184,-0.0184,-0.0185,-0.0183,-0.0183,-0.0141,-0.0152,0,0,0,0,0,0,0,0,0,0,-0.0158,-0.0165,-0.0184,-0.0184,-0.0185,-0.0183,-0.0183,-0.0153,-0.0151,-0.0132,0,-0.0133,0,-0.0136,-0.0137,-0.0137,0,0,0,-0.0182,-0.0167,-0.0166,-0.0184,-0.0185,-0.0183,-0.0183,-0.0152,-0.015,-0.0129,-0.0133,-0.0132,-0.0136,-0.0137,-0.0137,-0.0012,-0.0011,0,0,-0.0182,-0.0182,-0.0167,-0.0165,-0.0186,-0.0183,-0.0183,-0.0151,-0.0149,-0.0133,-0.0131,-0.0135,-0.0137,-0.0136,-0.0013,-0.0012,0,0,0,-0.0184,-0.0182,-0.0183,-0.0166,-0.0169,-0.0183,-0.0183,-0.0151,-0.0151,-0.013,-0.0135,-0.0136,-0.0136,-0.0014,-0.0012,0.0281,0,0,0,-0.0184,-0.0184,-0.0183,-0.0183,-0.017,-0.0166,-0.0183,-0.0153,-0.015,-0.0135,-0.0136,-0.0135,-0.0015,-0.0013,0.0271,0.0428,0,0,0,-0.0184,-0.0184,-0.0184,-0.0183,-0.0184,-0.0166,-0.0165,-0.0153,-0.0152,-0.0137,-0.0135,-0.0016,-0.0014,0.0262,0.041,0.054,0,0,0,-0.0183,-0.0172,-0.0184,-0.0159,-0.0184,-0.0121,-0.0165,-0.0139,-0.0123,-0.0136,-0.0015,-0.0013,0.0259,0.0399,0.0529,0.0722,0.0788,0,0,-0.0165,-0.017,-0.015,-0.016,-0.0024,-0.0121,0.0044,0.0026,-0.0077,-0.0025,-0.0022,0.0274,0.0409,0.0538,0.0856,0.0919,0,0,0,-0.014,-0.0079,-0.0063,0.0025,0.003,0.0186,0.0134,0.0116,0.0163,-0.0057,0.0239,0.0314,0.0387,0.0478,0.0528,0.0269,-0.0002,-0.0002,-0.0002,-0.0034,0.0022,0.0158,0.0273,0.0332,0.0402,0.0484,0.0468,0.0321,0.0369,0.0527,0.0793,0.0894,0.0933,0.0663,0.0478,0.0479,0.048,0.0481,0.017,0.0332,0.0424,0.0573,0.0716,0.085,0.092,0.086,0.0946,0.0752,0.0807,0.0751,0.1006,0.0697,0.0499,0.0496,0.0493,0.0492,0.049,0.0388,0.0487,0.0539,0.0763,0.1013,0.1111,0.136,0.1352,0.1236,0.1327,0.133,0.1326,0.1076,0.1322,0.1324,0.1325,0.1326,0.1327,0.1328,0.06,0.0676,0.0772,0.0946,0.1049,0.1329,0.1561,0.1656,0.1743,0.1684,0.1683,0.1152,0.1048,0.1039,0.1348,0.1345,0.1342,0.134,0.1339,0.0963,0.0828,0.0975,0.1019,0.1232,0.1417,0.1669,0.1963,0.2052,0.211,0.1769,0.1848,0.1768,0.1725,0.173,0.2199,0.2199,0.2199,0.2199,0.1131,0.1092,0.1198,0.1221,0.1337,0.1488,0.1701,0.1917,0.1982,0.1971,0.1971,0.1783,0.1759,0.166,0.1618,0.161,0.2039,0.2037,0.2036,0.1341,0.1298,0.1413,0.133,0.1351,0.1533,0.1685,0.1866,0.194,0.1988,0.1579,0.1587,0.1248,0.1232,0.101,0.0973,0.0934,0,0]}],[{"header":{"parameterUnit":"m.s-1","parameterCategory":2,"la1":30.2992,"la2":30.254,"lo1":-89.0895,"lo2":-89.0443,"dy":0.0025,"dx":0.0025,"nx":19,"ny":19,"refTime":"2026-05-04T21:00:00:Z","depth":"2","parameterNumber":2,"parameterNumberName":"U-component_of_CURRENTS"},"data":[0,0,0,-0.0141,-0.0141,-0.0123,-0.0123,-0.011,-0.011,0,0,0,0,0,0,0,0,0,0,0,-0.0145,-0.0145,-0.0141,-0.0141,-0.0123,-0.0123,-0.011,-0.011,0,0,0,0,0,0,0,0,0,0,0,-0.0145,-0.0145,-0.0145,-0.0141,-0.0123,-0.0123,-0.011,-0.012,0,0,0,0,0,0,0,0,0,0,-0.0136,-0.0139,-0.0145,-0.0145,-0.0141,-0.0123,-0.0123,-0.0121,-0.012,-0.0122,0,-0.0119,0,-0.0117,-0.011,-0.011,0,0,0,-0.0138,-0.014,-0.0136,-0.0145,-0.0141,-0.0123,-0.013,-0.012,-0.0119,-0.0121,-0.0119,-0.0118,-0.0117,-0.011,-0.011,-0.0094,-0.0094,0,0,-0.0139,-0.0141,-0.0137,-0.0136,-0.0135,-0.0131,-0.013,-0.0119,-0.0118,-0.0118,-0.0118,-0.0117,-0.011,-0.011,-0.0094,-0.0094,0,0,0,-0.0144,-0.0142,-0.0138,-0.0136,-0.0134,-0.013,-0.0129,-0.0118,-0.0117,-0.0118,-0.0116,-0.011,-0.011,-0.0094,-0.0094,-0.0067,0,0,0,-0.0144,-0.0145,-0.0138,-0.0139,-0.0134,-0.0124,-0.0128,-0.0117,-0.0116,-0.0116,-0.011,-0.011,-0.0094,-0.0094,-0.0068,0.0024,0,0,0,-0.0146,-0.0145,-0.0143,-0.0139,-0.0133,-0.0124,-0.0122,-0.0117,-0.0116,-0.011,-0.011,-0.0094,-0.0094,-0.0069,0.002,0.0044,0,0,0,-0.0148,-0.0152,-0.0143,-0.0148,-0.0133,-0.0129,-0.0122,-0.0119,-0.0114,-0.011,-0.0094,-0.0094,-0.0069,0.0017,0.0042,0.0008,0.0017,0,0,-0.0157,-0.0153,-0.0157,-0.0149,-0.0149,-0.0131,-0.0123,-0.0114,-0.0109,-0.0098,-0.0098,-0.0067,0.002,0.0044,0.0026,0.0035,0,0,0,-0.0164,-0.0159,-0.016,-0.0156,-0.0152,-0.0117,-0.0122,-0.0103,-0.0077,-0.0105,-0.0069,-0.0012,0.0001,-0.0026,-0.0019,-0.0092,-0.0092,-0.0093,-0.0093,-0.0165,-0.0165,-0.0156,-0.0148,-0.014,-0.0114,-0.0071,-0.0042,-0.0076,-0.0053,0.0005,0.005,0.0018,0.0024,-0.0043,-0.0043,-0.0043,-0.0043,-0.0043,-0.0136,-0.0113,-0.0119,-0.009,-0.007,-0.0038,0.0009,0.0017,0.008,0.0043,0.005,0.0,0.0033,-0.004,-0.0041,-0.0041,-0.0041,-0.0042,-0.0042,-0.0107,-0.0088,-0.0067,-0.0029,0.0012,0.0045,0.0075,0.0136,0.0173,0.0192,0.0133,0.0132,0.01,0.0162,0.0162,0.0163,0.0163,0.0164,0.0164,-0.0048,-0.0039,-0.0014,0.0033,0.0045,0.0084,0.0139,0.0146,0.0205,0.0228,0.0226,0.012,0.0113,0.0113,0.0172,0.017,0.0169,0.0169,0.0168,-0.0017,0.0001,0.0002,0.0013,0.0057,0.0077,0.0094,0.0145,0.0166,0.0196,0.0225,0.0221,0.0225,0.0217,0.022,0.0304,0.0304,0.0304,0.0304,-0.0008,0.0012,-0.001,-0.0005,0.0026,0.0071,0.0115,0.0192,0.0276,0.0363,0.0361,0.0283,0.0275,0.0279,0.027,0.0272,0.0369,0.037,0.037,-0.0022,-0.004,-0.0073,-0.0021,0.0034,0.0079,0.021,0.0379,0.044,0.0377,0.0421,0.0299,0.0172,0.0165,0.0156,0.0147,0.0145,0,0]},{"header":{"parameterUnit":"m.s-1","parameterCategory":2,"la1":30.2992,"la2":30.254,"lo1":-89.0895,"lo2":-89.0443,"dy":0.0025,"dx":0.0025,"nx":19,"ny":19,"refTime":"2026-05-04T21:00:00:Z","depth":"2","parameterNumber":3,"parameterNumberName":"V-component_of_CURRENTS"},"data":[0,0,0,-0.0303,-0.0303,-0.03,-0.03,-0.0284,-0.0283,0,0,0,0,0,0,0,0,0,0,0,-0.0303,-0.0303,-0.0303,-0.0303,-0.03,-0.03,-0.0284,-0.0283,0,0,0,0,0,0,0,0,0,0,0,-0.0303,-0.0303,-0.0303,-0.0303,-0.03,-0.03,-0.0284,-0.0289,0,0,0,0,0,0,0,0,0,0,-0.0293,-0.0296,-0.0303,-0.0303,-0.0303,-0.03,-0.03,-0.0289,-0.0289,-0.0282,0,-0.0281,0,-0.0282,-0.0282,-0.0282,0,0,0,-0.0302,-0.0296,-0.0296,-0.0303,-0.0303,-0.03,-0.0301,-0.0289,-0.0288,-0.0281,-0.0281,-0.0281,-0.0282,-0.0282,-0.0282,-0.0256,-0.0255,0,0,-0.0302,-0.0302,-0.0296,-0.0295,-0.0302,-0.0301,-0.0301,-0.0289,-0.0287,-0.0281,-0.028,-0.0282,-0.0282,-0.0282,-0.0256,-0.0256,0,0,0,-0.0303,-0.0302,-0.0302,-0.0296,-0.0296,-0.0301,-0.0301,-0.0288,-0.0288,-0.028,-0.0282,-0.0282,-0.0282,-0.0256,-0.0256,-0.0179,0,0,0,-0.0304,-0.0303,-0.0302,-0.0302,-0.0297,-0.0294,-0.03,-0.0289,-0.0287,-0.0282,-0.0282,-0.0281,-0.0256,-0.0256,-0.0181,-0.0177,0,0,0,-0.0303,-0.0303,-0.0303,-0.0302,-0.0301,-0.0294,-0.0293,-0.0288,-0.0288,-0.0282,-0.0281,-0.0256,-0.0256,-0.0183,-0.018,-0.0267,0,0,0,-0.0303,-0.0299,-0.0302,-0.0297,-0.0301,-0.0295,-0.0293,-0.0282,-0.0275,-0.0282,-0.0256,-0.0256,-0.0184,-0.0182,-0.0267,-0.0369,-0.0377,0,0,-0.0297,-0.0298,-0.0295,-0.0298,-0.032,-0.0295,-0.0308,-0.0297,-0.0269,-0.026,-0.0259,-0.018,-0.018,-0.0267,-0.0349,-0.0358,0,0,0,-0.0292,-0.0304,-0.0301,-0.0322,-0.0311,-0.0293,-0.0314,-0.0275,-0.0216,-0.0264,-0.0195,-0.0199,-0.0256,-0.0317,-0.0324,-0.0254,-0.0254,-0.0254,-0.0254,-0.0303,-0.0318,-0.0332,-0.0356,-0.0335,-0.0316,-0.0264,-0.0221,-0.0226,-0.017,-0.0145,-0.0173,-0.0233,-0.024,-0.0142,-0.0141,-0.0141,-0.0141,-0.0141,-0.0335,-0.0328,-0.0359,-0.034,-0.0313,-0.0291,-0.0214,-0.0175,-0.0148,-0.0103,-0.0163,-0.0243,-0.0243,-0.0135,-0.0136,-0.0137,-0.0137,-0.0138,-0.0138,-0.0335,-0.0324,-0.0309,-0.0312,-0.0284,-0.0246,-0.0226,-0.0141,-0.008,-0.0082,-0.0259,-0.0261,-0.0176,-0.0149,-0.0149,-0.0149,-0.015,-0.015,-0.015,-0.0283,-0.0297,-0.0264,-0.0275,-0.0278,-0.0281,-0.0235,-0.0234,-0.024,-0.0223,-0.0225,-0.0179,-0.0178,-0.018,-0.0155,-0.0154,-0.0153,-0.0153,-0.0153,-0.0337,-0.0215,-0.0294,-0.0281,-0.0296,-0.039,-0.038,-0.0426,-0.0451,-0.0493,-0.0333,-0.0327,-0.0392,-0.0388,-0.0398,-0.0431,-0.0431,-0.0431,-0.0431,-0.0326,-0.0276,-0.0333,-0.0341,-0.0362,-0.0415,-0.0497,-0.0507,-0.0484,-0.0438,-0.0437,-0.0403,-0.0393,-0.0457,-0.0451,-0.0461,-0.051,-0.051,-0.051,-0.0441,-0.0455,-0.0531,-0.0403,-0.0371,-0.0447,-0.0491,-0.0414,-0.0401,-0.0503,-0.0351,-0.0455,-0.0402,-0.0388,-0.0483,-0.0474,-0.049,0,0]}],[{"header":{"parameterUnit":"m.s-1","parameterCategory":2,"la1":30.2992,"la2":30.254,"lo1":-89.0895,"lo2":-89.0443,"dy":0.0025,"dx":0.0025,"nx":19,"ny":19,"refTime":"2026-05-04T21:00:00:Z","depth":"4","parameterNumber":2,"parameterNumberName":"U-component_of_CURRENTS"},"data":[0,0,0,-0.0201,-0.0201,-0.0176,-0.0176,-0.0145,-0.0144,0,0,0,0,0,0,0,0,0,0,0,-0.021,-0.021,-0.0202,-0.0201,-0.0176,-0.0176,-0.0145,-0.0144,0,0,0,0,0,0,0,0,0,0,0,-0.021,-0.021,-0.021,-0.0201,-0.0176,-0.0176,-0.0145,-0.0164,0,0,0,0,0,0,0,0,0,0,-0.0188,-0.0197,-0.021,-0.021,-0.0201,-0.0176,-0.0176,-0.0165,-0.0162,-0.0156,0,-0.0151,0,-0.0146,-0.0142,-0.0142,0,0,0,-0.0202,-0.0199,-0.019,-0.021,-0.02,-0.0176,-0.0188,-0.0163,-0.0161,-0.0153,-0.015,-0.0149,-0.0146,-0.0142,-0.0142,-0.0097,-0.0097,0,0,-0.0203,-0.0208,-0.0192,-0.0189,-0.0192,-0.0188,-0.0187,-0.0162,-0.016,-0.015,-0.0148,-0.0145,-0.0142,-0.0142,-0.0097,-0.0097,0,0,0,-0.0206,-0.0209,-0.0201,-0.019,-0.0185,-0.0188,-0.0186,-0.0161,-0.0158,-0.0148,-0.0145,-0.0142,-0.0141,-0.0097,-0.0097,-0.0116,0,0,0,-0.0207,-0.0211,-0.0201,-0.0204,-0.0186,-0.0173,-0.0186,-0.016,-0.0157,-0.0145,-0.0142,-0.0141,-0.0098,-0.0097,-0.0116,-0.0102,0,0,0,-0.0212,-0.0211,-0.0207,-0.0204,-0.0193,-0.0173,-0.0169,-0.0159,-0.0155,-0.0142,-0.0141,-0.0098,-0.0097,-0.0117,-0.0103,-0.0075,0,0,0,-0.0219,-0.0214,-0.0208,-0.0201,-0.0193,-0.0179,-0.0169,-0.0156,-0.0146,-0.0141,-0.0098,-0.0097,-0.0117,-0.0103,-0.0076,-0.0019,0,0,0,-0.0218,-0.0214,-0.0211,-0.0204,-0.0182,-0.0183,-0.0164,-0.0146,-0.0133,-0.0107,-0.0106,-0.0116,-0.0103,-0.0075,0.0016,0,0,0,0,-0.0213,-0.0197,-0.0195,-0.0177,-0.0176,-0.0163,-0.0147,-0.0136,-0.0112,-0.0123,-0.0099,-0.0088,-0.0071,-0.0039,-0.0094,-0.0094,-0.0094,-0.0094,-0.0094,-0.0195,-0.0187,-0.016,-0.0143,-0.0145,-0.0141,-0.0137,-0.0114,-0.0108,-0.0094,-0.0093,-0.0065,-0.0033,-0.009,-0.009,-0.009,-0.009,-0.009,-0.009,-0.014,-0.0119,-0.0109,-0.0081,-0.0092,-0.0083,-0.0093,-0.0097,-0.0075,-0.0077,-0.006,-0.0048,-0.0092,-0.0092,-0.0091,-0.0091,-0.0091,-0.0091,-0.0091,-0.0103,-0.0095,-0.0069,-0.0041,-0.0027,-0.0043,-0.0032,-0.0056,-0.006,-0.0067,-0.0004,-0.0057,-0.0067,-0.0052,-0.0051,-0.0051,-0.0051,-0.0051,-0.0051,-0.0086,-0.0059,-0.005,-0.001,-0.0003,0.0015,0.0008,0.0018,-0.0003,0.001,-0.0052,-0.0051,-0.0052,-0.0063,-0.0048,-0.0049,-0.0049,-0.0049,-0.0049,-0.006,-0.0088,-0.0053,-0.0045,0.0003,0.0032,0.0044,0.0093,0.0107,0.0124,0.0053,0.0047,0.007,0.0066,0.006,0.0112,0.0113,0.0114,0,-0.0086,-0.0085,-0.0074,-0.0056,-0.0011,0.0034,0.0096,0.013,0.0122,0.0114,0.007,-0.0016,-0.0018,0.0001,-0.0001,-0.001,0,0,0,-0.0097,-0.0088,-0.0089,-0.0066,-0.0016,0.0077,0.0121,0.0141,0.0129,0.0189,0.0134,0.0129,0.0036,-0.004,-0.0018,-0.0019,-0.0034,0,0]},{"header":{"parameterUnit":"m.s-1","parameterCategory":2,"la1":30.2992,"la2":30.254,"lo1":-89.0895,"lo2":-89.0443,"dy":0.0025,"dx":0.0025,"nx":19,"ny":19,"refTime":"2026-05-04T21:00:00:Z","depth":"4","parameterNumber":3,"parameterNumberName":"V-component_of_CURRENTS"},"data":[0,0,0,-0.0069,-0.0069,-0.0113,-0.0113,-0.021,-0.0211,0,0,0,0,0,0,0,0,0,0,0,-0.0056,-0.0056,-0.0069,-0.0069,-0.0113,-0.0113,-0.021,-0.0211,0,0,0,0,0,0,0,0,0,0,0,-0.0056,-0.0056,-0.0057,-0.007,-0.0113,-0.0113,-0.0209,-0.0167,0,0,0,0,0,0,0,0,0,0,-0.012,-0.0101,-0.0056,-0.0057,-0.007,-0.0113,-0.0113,-0.0165,-0.017,-0.0201,0,-0.0207,0,-0.021,-0.0218,-0.0218,0,0,0,-0.0073,-0.0096,-0.0108,-0.0057,-0.007,-0.0113,-0.0094,-0.0167,-0.0173,-0.0207,-0.0208,-0.0211,-0.0212,-0.0218,-0.0219,-0.0332,-0.0333,0,0,-0.0071,-0.0066,-0.0104,-0.0112,-0.0083,-0.0093,-0.0096,-0.017,-0.0178,-0.0209,-0.0214,-0.0213,-0.0219,-0.022,-0.0332,-0.0332,0,0,0,-0.0061,-0.0065,-0.0074,-0.0108,-0.0112,-0.0094,-0.0097,-0.0175,-0.0178,-0.0215,-0.0214,-0.022,-0.0221,-0.0331,-0.0332,-0.0455,0,0,0,-0.006,-0.0059,-0.0072,-0.0071,-0.011,-0.0138,-0.01,-0.0173,-0.0181,-0.0214,-0.022,-0.0222,-0.0331,-0.0332,-0.0451,-0.0526,0,0,0,-0.0054,-0.0058,-0.0063,-0.007,-0.0087,-0.0137,-0.0144,-0.0174,-0.0181,-0.0218,-0.0222,-0.033,-0.0331,-0.0447,-0.0519,-0.0477,0,0,0,-0.0048,-0.0076,-0.0063,-0.0107,-0.0086,-0.0153,-0.0143,-0.0186,-0.0219,-0.022,-0.0331,-0.0332,-0.0446,-0.0514,-0.0474,-0.0314,0,0,0,-0.0083,-0.008,-0.0111,-0.01,-0.0196,-0.0147,-0.0254,-0.0278,-0.0246,-0.0309,-0.0311,-0.0452,-0.0518,-0.0477,-0.0378,0,0,0,0,-0.0124,-0.0166,-0.0186,-0.0241,-0.0258,-0.0318,-0.0328,-0.0333,-0.0379,-0.0269,-0.0439,-0.0477,-0.0446,-0.0343,-0.0337,-0.0337,-0.0337,-0.0337,-0.0337,-0.0195,-0.0231,-0.0309,-0.037,-0.0409,-0.0448,-0.0491,-0.05,-0.0463,-0.0488,-0.0567,-0.0613,-0.0511,-0.0541,-0.0542,-0.0543,-0.0543,-0.0544,-0.0544,-0.0302,-0.0375,-0.0414,-0.0512,-0.0561,-0.0645,-0.0684,-0.0673,-0.0717,-0.0673,-0.0635,-0.0472,-0.0556,-0.0553,-0.0552,-0.055,-0.0549,-0.0549,-0.0548,-0.0413,-0.0446,-0.0502,-0.0591,-0.0683,-0.0727,-0.0739,-0.0791,-0.082,-0.0842,-0.0619,-0.0668,-0.0663,-0.0774,-0.0775,-0.0775,-0.0775,-0.0775,-0.0775,-0.0487,-0.0539,-0.0581,-0.0643,-0.0671,-0.0692,-0.0745,-0.0737,-0.0779,-0.0748,-0.0845,-0.0689,-0.0681,-0.0673,-0.0778,-0.0777,-0.0777,-0.0777,-0.0777,-0.0594,-0.0583,-0.0629,-0.0642,-0.0638,-0.0613,-0.0628,-0.0599,-0.0583,-0.0576,-0.0652,-0.0657,-0.0579,-0.0574,-0.0559,-0.0634,-0.0632,-0.063,0,-0.0614,-0.0623,-0.064,-0.0628,-0.0591,-0.0577,-0.0483,-0.0463,-0.0547,-0.058,-0.0638,-0.0731,-0.0732,-0.0647,-0.0639,-0.0624,0,0,0,-0.0588,-0.0611,-0.0601,-0.0622,-0.0591,-0.0509,-0.0463,-0.0457,-0.053,-0.0431,-0.0588,-0.0599,-0.0582,-0.0787,-0.0678,-0.0669,-0.0649,0,0]}]]